Time,TemperatureF,DewpointF,PressureIn,WindDirection,WindDirectionDegrees,WindSpeedMPH,WindSpeedGustMPH,Humidity,HourlyPrecipIn,Conditions,Clouds,dailyrainin,SoftwareType,DateUTC
2013-04-23 00:00:00,49.5,8.8,29.12,SSE,156,0.0,3.0,19,0.00,CLR,,0.00,WeatherDisplay:10.37,2013-04-23 04:00:00,
2013-04-23 00:05:00,49.3,8.7,29.12,SSE,156,0.0,0.0,19,0.00,CLR,,0.00,WeatherDisplay:10.37,2013-04-23 04:05:00,
2013-04-23 00:10:00,49.1,8.5,29.09,SSE,156,0.0,3.0,19,0.00,CLR,,0.00,WeatherDisplay:10.37,2013-04-23 04:10:00,
2013-04-23 00:15:00,49.3,8.7,29.09,SSE,156,0.0,2.0,19,0.00,CLR,,0.00,WeatherDisplay:10.37,2013-04-23 04:15:00,
2013-04-23 00:20:00,49.5,8.8,29.09,SSE,156,0.0,3.0,19,0.00,CLR,,0.00,WeatherDisplay:10.37,2013-04-23 04:20:00,
2013-04-23 02:10:00,47.7,7.4,29.09,SSE,156,0.0,3.0,19,0.00,CLR,,0.00,WeatherDisplay:10.37,2013-04-23 06:10:00,
2013-04-23 02:15:00,48.0,7.6,29.09,SSE,156,2.0,3.0,19,0.00,CLR,,0.00,WeatherDisplay:10.37,2013-04-23 06:15:00,
2013-04-23 02:20:00,48.0,7.6,29.09,SSE,156,2.0,3.0,19,0.00,CLR,,0.00,WeatherDisplay:10.37,2013-04-23 06:20:00,
2013-04-23 02:25:00,48.2,7.8,29.09,SSE,156,0.0,3.0,19,0.00,CLR,,0.00,WeatherDisplay:10.37,2013-04-23 06:25:00,
2013-04-23 02:30:00,48.2,7.8,29.09,SSE,156,0.0,0.0,19,0.00,CLR,,0.00,WeatherDisplay:10.37,2013-04-23 06:30:00,
2013-04-23 02:35:00,48.2,7.8,29.09,SSE,156,0.0,0.0,19,0.00,CLR,,0.00,WeatherDisplay:10.37,2013-04-23 06:35:00,
2013-04-23 02:40:00,47.9,7.6,29.09,SSE,156,0.0,0.0,19,0.00,CLR,,0.00,WeatherDisplay:10.37,2013-04-23 06:40:00,
2013-04-23 02:45:00,47.7,7.3,29.09,SSE,156,0.0,0.0,19,0.00,CLR,,0.00,WeatherDisplay:10.37,2013-04-23 06:45:00,
2013-04-23 02:50:00,47.5,7.2,29.09,SSE,156,0.0,0.0,19,0.00,CLR,,0.00,WeatherDisplay:10.37,2013-04-23 06:50:00,
2013-04-23 02:55:00,47.5,7.2,29.09,SSE,156,0.0,0.0,19,0.00,CLR,,0.00,WeatherDisplay:10.37,2013-04-23 06:55:00,
2013-04-23 03:00:00,47.5,7.2,29.09,SSE,156,0.0,0.0,19,0.00,CLR,,0.00,WeatherDisplay:10.37,2013-04-23 07:00:00,
2013-04-23 03:05:00,47.7,7.3,29.09,SSE,156,0.0,0.0,19,0.00,CLR,,0.00,WeatherDisplay:10.37,2013-04-23 07:05:00,
2013-04-23 03:10:00,47.7,7.3,29.06,SSE,156,0.0,0.0,19,0.00,CLR,,0.00,WeatherDisplay:10.37,2013-04-23 07:10:00,
2013-04-23 03:15:00,47.8,7.5,29.06,SSE,156,0.0,0.0,19,0.00,CLR,,0.00,WeatherDisplay:10.37,2013-04-23 07:15:00,
2013-04-23 03:20:00,47.8,7.5,29.06,SSE,156,0.0,0.0,19,0.00,CLR,,0.00,WeatherDisplay:10.37,2013-04-23 07:20:00,
2013-04-23 03:25:00,48.0,7.6,29.06,SSE,156,0.0,0.0,19,0.00,CLR,,0.00,WeatherDisplay:10.37,2013-04-23 07:25:00,
2013-04-23 03:30:00,48.0,7.6,29.06,SSE,156,0.0,0.0,19,0.00,CLR,,0.00,WeatherDisplay:10.37,2013-04-23 07:30:00,
2013-04-23 03:35:00,48.2,7.8,29.06,SSE,156,0.0,0.0,19,0.00,CLR,,0.00,WeatherDisplay:10.37,2013-04-23 07:35:00,
2013-04-23 03:40:00,48.4,8.0,29.06,SSE,156,0.0,0.0,19,0.00,CLR,,0.00,WeatherDisplay:10.37,2013-04-23 07:40:00,
2013-04-23 03:45:00,48.7,8.2,29.06,SSE,156,0.0,0.0,19,0.00,CLR,,0.00,WeatherDisplay:10.37,2013-04-23 07:45:00,
2013-04-23 03:50:00,48.7,8.2,29.06,SSE,156,0.0,0.0,19,0.00,CLR,,0.00,WeatherDisplay:10.37,2013-04-23 07:50:00,
2013-04-23 03:55:00,48.9,8.4,29.06,SSE,156,0.0,0.0,19,0.00,CLR,,0.00,WeatherDisplay:10.37,2013-04-23 07:55:00,
2013-04-23 04:00:00,49.3,8.7,29.06,SSE,156,0.0,0.0,19,0.00,CLR,,0.00,WeatherDisplay:10.37,2013-04-23 08:00:00,
2013-04-23 04:05:00,49.6,9.0,29.06,SSE,156,0.0,0.0,19,0.00,CLR,,0.00,WeatherDisplay:10.37,2013-04-23 08:05:00,
2013-04-23 04:10:00,49.9,9.2,29.06,SSE,156,0.0,0.0,19,0.00,CLR,,0.00,WeatherDisplay:10.37,2013-04-23 08:10:00,
2013-04-23 04:15:00,50.2,9.4,29.06,SSE,156,0.0,0.0,19,0.00,CLR,,0.00,WeatherDisplay:10.37,2013-04-23 08:15:00,
2013-04-23 04:20:00,50.4,9.6,29.06,SSE,166,0.0,5.0,19,0.00,CLR,,0.00,WeatherDisplay:10.37,2013-04-23 08:20:00,
2013-04-23 04:25:00,50.5,9.7,29.06,SSW,205,0.0,2.0,19,0.00,CLR,,0.00,WeatherDisplay:10.37,2013-04-23 08:25:00,
2013-04-23 04:30:00,50.5,9.7,29.06,SW,221,0.0,0.0,19,0.00,CLR,,0.00,WeatherDisplay:10.37,2013-04-23 08:30:00,
2013-04-23 04:40:00,50.9,10.0,29.03,South,172,0.0,2.0,19,0.00,CLR,,0.00,WeatherDisplay:10.37,2013-04-23 08:40:00,
2013-04-23 04:45:00,50.7,9.9,29.03,SE,146,0.0,0.0,19,0.00,CLR,,0.00,WeatherDisplay:10.37,2013-04-23 08:45:00,
2013-04-23 04:50:00,50.6,9.8,29.03,SSE,148,0.0,3.0,19,0.00,CLR,,0.00,WeatherDisplay:10.37,2013-04-23 08:50:00,
2013-04-23 04:55:00,50.7,9.9,29.03,SSE,148,0.0,0.0,19,0.00,CLR,,0.00,WeatherDisplay:10.37,2013-04-23 08:55:00,
2013-04-23 05:00:00,50.7,9.9,29.03,SSE,150,0.0,3.0,19,0.00,CLR,,0.00,WeatherDisplay:10.37,2013-04-23 09:00:00,
2013-04-23 05:05:00,50.8,10.0,29.03,SSE,153,0.0,3.0,19,0.00,CLR,,0.00,WeatherDisplay:10.37,2013-04-23 09:05:00,
2013-04-23 05:10:00,50.9,10.0,29.03,SSE,155,0.0,2.0,19,0.00,CLR,,0.00,WeatherDisplay:10.37,2013-04-23 09:10:00,
2013-04-23 05:15:00,50.7,9.9,29.03,SSE,155,0.0,3.0,19,0.00,CLR,,0.00,WeatherDisplay:10.37,2013-04-23 09:15:00,
2013-04-23 05:20:00,50.2,9.4,29.03,SSE,152,2.0,4.0,19,0.00,CLR,,0.00,WeatherDisplay:10.37,2013-04-23 09:20:00,
2013-04-23 05:25:00,49.6,9.0,29.00,SSE,148,1.0,4.0,19,0.00,CLR,,0.00,WeatherDisplay:10.37,2013-04-23 09:25:00,
2013-04-23 05:30:00,49.4,8.8,29.00,SE,146,2.0,5.0,19,0.00,CLR,,0.00,WeatherDisplay:10.37,2013-04-23 09:30:00,
2013-04-23 05:35:00,49.1,8.5,29.00,SSE,149,2.0,5.0,19,0.00,CLR,,0.00,WeatherDisplay:10.37,2013-04-23 09:35:00,
2013-04-23 05:40:00,48.9,8.4,29.00,SSE,155,2.0,4.0,19,0.00,CLR,,0.00,WeatherDisplay:10.37,2013-04-23 09:40:00,
2013-04-23 05:45:00,48.9,8.4,29.00,SSE,158,0.0,4.0,19,0.00,CLR,,0.00,WeatherDisplay:10.37,2013-04-23 09:45:00,
2013-04-23 05:50:00,48.7,8.2,29.00,SSE,157,0.0,3.0,19,0.00,CLR,,0.00,WeatherDisplay:10.37,2013-04-23 09:50:00,
2013-04-23 05:55:00,49.3,8.7,29.03,SSE,157,0.0,3.0,19,0.00,CLR,,0.00,WeatherDisplay:10.37,2013-04-23 09:55:00,
2013-04-23 06:00:00,49.5,8.8,29.03,SSE,157,0.0,0.0,19,0.00,CLR,,0.00,WeatherDisplay:10.37,2013-04-23 10:00:00,
2013-04-23 06:10:00,50.5,9.7,29.03,South,190,0.0,4.0,19,0.00,CLR,,0.00,WeatherDisplay:10.37,2013-04-23 10:10:00,
2013-04-23 06:15:00,51.1,10.2,29.03,SSW,196,2.0,4.0,19,0.00,CLR,,0.00,WeatherDisplay:10.37,2013-04-23 10:15:00,
2013-04-23 06:20:00,51.4,10.5,29.03,SSW,198,0.0,3.0,19,0.00,CLR,,0.00,WeatherDisplay:10.37,2013-04-23 10:20:00,
2013-04-23 06:25:00,51.5,10.6,29.03,SSW,205,0.0,4.0,19,0.00,CLR,,0.00,WeatherDisplay:10.37,2013-04-23 10:25:00,
2013-04-23 06:30:00,51.6,10.6,29.03,South,177,0.0,5.0,19,0.00,CLR,,0.00,WeatherDisplay:10.37,2013-04-23 10:30:00,
2013-04-23 06:35:00,51.6,10.6,29.03,South,170,0.0,4.0,19,0.00,CLR,,0.00,WeatherDisplay:10.37,2013-04-23 10:35:00,
2013-04-23 06:40:00,51.4,10.5,29.03,South,182,0.0,3.0,19,0.00,CLR,,0.00,WeatherDisplay:10.37,2013-04-23 10:40:00,
2013-04-23 06:45:00,51.6,10.6,29.03,South,175,0.0,5.0,19,0.00,CLR,,0.00,WeatherDisplay:10.37,2013-04-23 10:45:00,
2013-04-23 06:50:00,51.8,9.5,29.03,South,183,0.0,6.0,18,0.00,CLR,,0.00,WeatherDisplay:10.37,2013-04-23 10:50:00,
2013-04-23 06:55:00,52.0,9.7,29.03,South,184,0.0,3.0,18,0.00,CLR,,0.00,WeatherDisplay:10.37,2013-04-23 10:55:00,
2013-04-23 07:00:00,52.0,9.7,29.03,South,187,0.0,4.0,18,0.00,CLR,,0.00,WeatherDisplay:10.37,2013-04-23 11:00:00,
2013-04-23 07:05:00,52.2,9.9,29.03,South,190,0.0,5.0,18,0.00,CLR,,0.00,WeatherDisplay:10.37,2013-04-23 11:05:00,
2013-04-23 07:10:00,52.3,10.0,29.00,South,185,2.0,5.0,18,0.00,CLR,,0.00,WeatherDisplay:10.37,2013-04-23 11:10:00,
2013-04-23 07:15:00,53.1,10.7,29.00,South,189,0.0,3.0,18,0.00,CLR,,0.00,WeatherDisplay:10.37,2013-04-23 11:15:00,
2013-04-23 07:20:00,53.9,11.3,29.00,South,187,0.0,4.0,18,0.00,CLR,,0.00,WeatherDisplay:10.37,2013-04-23 11:20:00,
2013-04-23 07:25:00,53.8,11.2,29.03,South,169,0.0,4.0,18,0.00,CLR,,0.00,WeatherDisplay:10.37,2013-04-23 11:25:00,
2013-04-23 07:30:00,54.0,11.3,29.03,South,184,0.0,6.0,18,0.00,CLR,,0.00,WeatherDisplay:10.37,2013-04-23 11:30:00,
2013-04-23 07:35:00,54.4,11.7,29.03,SSW,197,0.0,3.0,18,0.00,CLR,,0.00,WeatherDisplay:10.37,2013-04-23 11:35:00,
2013-04-23 07:40:00,54.9,12.1,29.00,South,188,2.0,5.0,18,0.00,CLR,,0.00,WeatherDisplay:10.37,2013-04-23 11:40:00,
2013-04-23 07:45:00,55.2,12.4,29.00,SSE,162,3.0,5.0,18,0.00,CLR,,0.00,WeatherDisplay:10.37,2013-04-23 11:45:00,
2013-04-23 07:50:00,55.2,12.4,29.00,SSE,149,3.0,5.0,18,0.00,CLR,,0.00,WeatherDisplay:10.37,2013-04-23 11:50:00,
2013-04-23 07:55:00,55.8,11.6,29.00,SE,143,2.0,4.0,17,0.00,CLR,,0.00,WeatherDisplay:10.37,2013-04-23 11:55:00,
2013-04-23 08:00:00,56.6,12.2,29.00,SE,143,2.0,5.0,17,0.00,CLR,,0.00,WeatherDisplay:10.37,2013-04-23 12:00:00,
2013-04-23 08:05:00,57.1,12.6,29.00,SSE,156,2.0,4.0,17,0.00,CLR,,0.00,WeatherDisplay:10.37,2013-04-23 12:05:00,
2013-04-23 08:10:00,57.3,12.8,29.03,SSE,167,0.0,4.0,17,0.00,CLR,,0.00,WeatherDisplay:10.37,2013-04-23 12:10:00,
2013-04-23 08:15:00,57.0,12.6,29.03,South,169,0.0,4.0,17,0.00,CLR,,0.00,WeatherDisplay:10.37,2013-04-23 12:15:00,
2013-04-23 08:20:00,56.6,12.2,29.03,South,183,0.0,4.0,17,0.00,CLR,,0.00,WeatherDisplay:10.37,2013-04-23 12:20:00,
2013-04-23 08:25:00,56.3,12.0,29.03,South,182,2.0,6.0,17,0.00,CLR,,0.00,WeatherDisplay:10.37,2013-04-23 12:25:00,
2013-04-23 08:30:00,56.3,12.0,29.03,South,183,2.0,6.0,17,0.00,CLR,,0.00,WeatherDisplay:10.37,2013-04-23 12:30:00,
2013-04-23 08:35:00,56.3,12.0,29.03,South,187,2.0,6.0,17,0.00,CLR,,0.00,WeatherDisplay:10.37,2013-04-23 12:35:00,
2013-04-23 08:40:00,56.7,12.3,29.03,South,177,3.0,6.0,17,0.00,CLR,,0.00,WeatherDisplay:10.37,2013-04-23 12:40:00,
2013-04-23 08:45:00,57.0,12.6,29.03,South,177,2.0,6.0,17,0.00,CLR,,0.00,WeatherDisplay:10.37,2013-04-23 12:45:00,
2013-04-23 08:50:00,57.7,13.1,29.03,South,171,1.0,6.0,17,0.00,CLR,,0.00,WeatherDisplay:10.37,2013-04-23 12:50:00,
2013-04-23 08:55:00,58.3,13.6,29.03,South,171,3.0,6.0,17,0.00,CLR,,0.00,WeatherDisplay:10.37,2013-04-23 12:55:00,
2013-04-23 09:05:00,58.8,14.0,29.03,South,182,3.0,8.0,17,0.00,CLR,,0.00,WeatherDisplay:10.37,2013-04-23 13:05:00,
2013-04-23 09:10:00,59.0,14.2,29.03,South,177,3.0,6.0,17,0.00,CLR,,0.00,WeatherDisplay:10.37,2013-04-23 13:10:00,
2013-04-23 09:15:00,59.4,14.5,29.03,South,179,2.0,6.0,17,0.00,CLR,,0.00,WeatherDisplay:10.37,2013-04-23 13:15:00,
2013-04-23 09:20:00,59.8,14.8,29.03,South,177,3.0,6.0,17,0.00,CLR,,0.00,WeatherDisplay:10.37,2013-04-23 13:20:00,
2013-04-23 09:25:00,60.3,15.3,29.00,South,175,0.0,6.0,17,0.00,CLR,,0.00,WeatherDisplay:10.37,2013-04-23 13:25:00,
2013-04-23 09:30:00,61.0,14.4,29.00,South,171,3.0,6.0,16,0.00,CLR,,0.00,WeatherDisplay:10.37,2013-04-23 13:30:00,
2013-04-23 09:35:00,61.5,14.8,29.00,South,182,3.0,6.0,16,0.00,CLR,,0.00,WeatherDisplay:10.37,2013-04-23 13:35:00,
2013-04-23 09:45:00,62.6,15.7,29.00,South,187,2.0,4.0,16,0.00,CLR,,0.00,WeatherDisplay:10.37,2013-04-23 13:45:00,
2013-04-23 09:50:00,63.2,16.2,29.00,South,173,3.0,8.0,16,0.00,CLR,,0.00,WeatherDisplay:10.37,2013-04-23 13:50:00,
2013-04-23 09:55:00,63.5,16.4,29.00,South,181,5.0,10.0,16,0.00,CLR,,0.00,WeatherDisplay:10.37,2013-04-23 13:55:00,
2013-04-23 10:00:00,63.9,16.7,29.00,South,184,2.0,8.0,16,0.00,CLR,,0.00,WeatherDisplay:10.37,2013-04-23 14:00:00,
2013-04-23 10:05:00,64.2,17.0,29.00,South,186,2.0,6.0,16,0.00,CLR,,0.00,WeatherDisplay:10.37,2013-04-23 14:05:00,
2013-04-23 10:10:00,64.8,16.0,29.00,South,175,5.0,8.0,15,0.00,CLR,,0.00,WeatherDisplay:10.37,2013-04-23 14:10:00,
2013-04-23 10:15:00,65.1,16.3,29.00,South,179,5.0,8.0,15,0.00,CLR,,0.00,WeatherDisplay:10.37,2013-04-23 14:15:00,
2013-04-23 10:20:00,65.1,16.3,29.00,South,180,5.0,7.0,15,0.00,CLR,,0.00,WeatherDisplay:10.37,2013-04-23 14:20:00,
2013-04-23 10:25:00,65.1,16.3,29.00,SSW,192,5.0,10.0,15,0.00,CLR,,0.00,WeatherDisplay:10.37,2013-04-23 14:25:00,
2013-04-23 10:30:00,65.5,16.5,29.00,SSW,195,3.0,9.0,15,0.00,CLR,,0.00,WeatherDisplay:10.37,2013-04-23 14:30:00,
2013-04-23 10:35:00,65.7,16.7,29.00,SSW,197,3.0,7.0,15,0.00,CLR,,0.00,WeatherDisplay:10.37,2013-04-23 14:35:00,
2013-04-23 10:40:00,65.8,16.8,29.00,SSW,198,5.0,8.0,15,0.00,CLR,,0.00,WeatherDisplay:10.37,2013-04-23 14:40:00,
2013-04-23 10:45:00,66.0,17.0,29.00,SSW,204,3.0,8.0,15,0.00,CLR,,0.00,WeatherDisplay:10.37,2013-04-23 14:45:00,
2013-04-23 10:50:00,66.3,17.2,29.00,SSW,201,3.0,12.0,15,0.00,CLR,,0.00,WeatherDisplay:10.37,2013-04-23 14:50:00,
2013-04-23 10:55:00,66.8,17.6,29.00,SSW,202,3.0,6.0,15,0.00,CLR,,0.00,WeatherDisplay:10.37,2013-04-23 14:55:00,
2013-04-23 11:00:00,67.3,18.0,29.00,SSW,204,0.0,9.0,15,0.00,CLR,,0.00,WeatherDisplay:10.37,2013-04-23 15:00:00,
2013-04-23 11:05:00,67.4,18.1,29.00,SSW,205,5.0,9.0,15,0.00,CLR,,0.00,WeatherDisplay:10.37,2013-04-23 15:05:00,
2013-04-23 11:10:00,67.8,18.4,29.00,SSW,210,5.0,10.0,15,0.00,CLR,,0.00,WeatherDisplay:10.37,2013-04-23 15:10:00,
2013-04-23 11:15:00,68.1,18.6,29.00,SSW,210,3.0,6.0,15,0.00,CLR,,0.00,WeatherDisplay:10.37,2013-04-23 15:15:00,
2013-04-23 11:20:00,68.5,19.0,29.00,SSW,199,3.0,8.0,15,0.00,CLR,,0.00,WeatherDisplay:10.37,2013-04-23 15:20:00,
2013-04-23 11:30:00,68.9,19.3,29.00,SSW,192,2.0,6.0,15,0.00,CLR,,0.00,WeatherDisplay:10.37,2013-04-23 15:30:00,
2013-04-23 11:35:00,69.0,19.4,29.00,SSW,204,5.0,6.0,15,0.00,CLR,,0.00,WeatherDisplay:10.37,2013-04-23 15:35:00,
2013-04-23 11:40:00,69.2,19.5,29.00,SW,214,5.0,8.0,15,0.00,CLR,,0.00,WeatherDisplay:10.37,2013-04-23 15:40:00,
2013-04-23 11:45:00,69.2,19.5,29.00,SSW,195,5.0,11.0,15,0.00,CLR,,0.00,WeatherDisplay:10.37,2013-04-23 15:45:00,
2013-04-23 11:50:00,69.2,19.5,29.00,SSW,205,6.0,8.0,15,0.00,CLR,,0.00,WeatherDisplay:10.37,2013-04-23 15:50:00,
2013-04-23 11:55:00,69.5,19.8,29.00,SSW,200,3.0,7.0,15,0.00,CLR,,0.00,WeatherDisplay:10.37,2013-04-23 15:55:00,
2013-04-23 12:00:00,69.5,19.8,29.00,SSW,195,6.0,8.0,15,0.00,CLR,,0.00,WeatherDisplay:10.37,2013-04-23 16:00:00,
2013-04-23 12:05:00,69.6,19.9,29.00,SSW,207,5.0,9.0,15,0.00,CLR,,0.00,WeatherDisplay:10.37,2013-04-23 16:05:00,
2013-04-23 12:10:00,69.5,19.8,29.00,SW,227,6.0,10.0,15,0.00,CLR,,0.00,WeatherDisplay:10.37,2013-04-23 16:10:00,
2013-04-23 12:15:00,69.9,18.5,29.00,SW,222,3.0,8.0,14,0.00,CLR,,0.00,WeatherDisplay:10.37,2013-04-23 16:15:00,
2013-04-23 12:20:00,70.0,18.5,29.00,SSW,203,2.0,6.0,14,0.00,CLR,,0.00,WeatherDisplay:10.37,2013-04-23 16:20:00,
2013-04-23 12:25:00,69.9,18.5,29.00,SSW,198,5.0,9.0,14,0.00,CLR,,0.00,WeatherDisplay:10.37,2013-04-23 16:25:00,
2013-04-23 12:30:00,69.4,19.7,29.00,SW,214,5.0,9.0,15,0.00,CLR,,0.00,WeatherDisplay:10.37,2013-04-23 16:30:00,
2013-04-23 12:35:00,69.1,19.4,29.00,SW,214,5.0,15.0,15,0.00,CLR,,0.00,WeatherDisplay:10.37,2013-04-23 16:35:00,
2013-04-23 12:40:00,69.1,19.4,29.00,SSW,205,8.0,12.0,15,0.00,CLR,,0.00,WeatherDisplay:10.37,2013-04-23 16:40:00,
2013-04-23 12:45:00,69.3,19.6,29.00,SW,222,3.0,6.0,15,0.00,CLR,,0.00,WeatherDisplay:10.37,2013-04-23 16:45:00,
2013-04-23 12:50:00,69.4,19.7,29.00,SSW,208,5.0,8.0,15,0.00,CLR,,0.00,WeatherDisplay:10.37,2013-04-23 16:50:00,
2013-04-23 12:55:00,69.4,19.7,28.97,SSW,199,3.0,11.0,15,0.00,CLR,,0.00,WeatherDisplay:10.37,2013-04-23 16:55:00,
2013-04-23 13:00:00,69.6,19.9,28.97,SW,215,3.0,10.0,15,0.00,CLR,,0.00,WeatherDisplay:10.37,2013-04-23 17:00:00,
2013-04-23 13:05:00,70.3,18.8,28.97,SSW,213,2.0,8.0,14,0.00,CLR,,0.00,WeatherDisplay:10.37,2013-04-23 17:05:00,
2013-04-23 13:10:00,70.5,18.9,28.97,SW,216,3.0,9.0,14,0.00,CLR,,0.00,WeatherDisplay:10.37,2013-04-23 17:10:00,
2013-04-23 13:15:00,70.0,18.5,28.97,SW,223,5.0,13.0,14,0.00,CLR,,0.00,WeatherDisplay:10.37,2013-04-23 17:15:00,
2013-04-23 13:20:00,69.8,18.4,28.97,SW,216,3.0,8.0,14,0.00,CLR,,0.00,WeatherDisplay:10.37,2013-04-23 17:20:00,
2013-04-23 13:25:00,69.4,19.7,28.97,SW,227,3.0,10.0,15,0.00,CLR,,0.00,WeatherDisplay:10.37,2013-04-23 17:25:00,
2013-04-23 13:30:00,69.0,19.3,28.97,SW,220,0.0,6.0,15,0.00,CLR,,0.00,WeatherDisplay:10.37,2013-04-23 17:30:00,
2013-04-23 13:35:00,68.7,19.1,28.97,SSW,201,3.0,6.0,15,0.00,CLR,,0.00,WeatherDisplay:10.37,2013-04-23 17:35:00,
2013-04-23 13:40:00,68.4,18.9,28.97,SW,219,5.0,8.0,15,0.00,CLR,,0.00,WeatherDisplay:10.37,2013-04-23 17:40:00,
2013-04-23 13:45:00,68.0,18.6,28.97,SW,221,7.0,13.0,15,0.00,CLR,,0.00,WeatherDisplay:10.37,2013-04-23 17:45:00,
2013-04-23 13:50:00,68.2,18.8,28.97,SW,215,5.0,8.0,15,0.00,CLR,,0.00,WeatherDisplay:10.37,2013-04-23 17:50:00,
2013-04-23 13:55:00,68.6,19.1,28.94,SSW,209,2.0,6.0,15,0.00,CLR,,0.00,WeatherDisplay:10.37,2013-04-23 17:55:00,
2013-04-23 14:00:00,68.9,19.3,28.94,SSW,199,0.0,8.0,15,0.00,CLR,,0.00,WeatherDisplay:10.37,2013-04-23 18:00:00,
2013-04-23 14:05:00,68.9,19.3,28.94,SSW,202,3.0,6.0,15,0.00,CLR,,0.00,WeatherDisplay:10.37,2013-04-23 18:05:00,
2013-04-23 14:10:00,69.4,19.7,28.94,South,181,3.0,8.0,15,0.00,CLR,,0.00,WeatherDisplay:10.37,2013-04-23 18:10:00,
2013-04-23 14:15:00,69.3,19.6,28.94,South,185,3.0,8.0,15,0.00,CLR,,0.00,WeatherDisplay:10.37,2013-04-23 18:15:00,
2013-04-23 14:20:00,69.1,19.4,28.94,SSW,194,3.0,7.0,15,0.00,CLR,,0.00,WeatherDisplay:10.37,2013-04-23 18:20:00,
2013-04-23 14:25:00,68.9,19.3,28.94,SSW,192,3.0,8.0,15,0.00,CLR,,0.00,WeatherDisplay:10.37,2013-04-23 18:25:00,
2013-04-23 14:30:00,69.5,19.7,28.94,South,186,5.0,6.0,15,0.00,CLR,,0.00,WeatherDisplay:10.37,2013-04-23 18:30:00,
2013-04-23 14:35:00,70.1,18.7,28.94,SSW,209,3.0,8.0,14,0.00,CLR,,0.00,WeatherDisplay:10.37,2013-04-23 18:35:00,
2013-04-23 14:40:00,70.4,18.9,28.94,SSW,212,6.0,9.0,14,0.00,CLR,,0.00,WeatherDisplay:10.37,2013-04-23 18:40:00,
2013-04-23 14:50:00,70.3,18.8,28.94,SSW,204,2.0,12.0,14,0.00,CLR,,0.00,WeatherDisplay:10.37,2013-04-23 18:50:00,
2013-04-23 14:55:00,70.7,19.1,28.94,SSW,204,7.0,12.0,14,0.00,CLR,,0.00,WeatherDisplay:10.37,2013-04-23 18:55:00,
2013-04-23 15:00:00,69.9,18.5,28.94,SSW,207,5.0,13.0,14,0.00,CLR,,0.00,WeatherDisplay:10.37,2013-04-23 19:00:00,
2013-04-23 15:05:00,69.9,18.5,28.94,SW,221,5.0,8.0,14,0.00,CLR,,0.00,WeatherDisplay:10.37,2013-04-23 19:05:00,
2013-04-23 15:10:00,69.7,19.9,28.94,SW,224,5.0,13.0,15,0.00,CLR,,0.00,WeatherDisplay:10.37,2013-04-23 19:10:00,
2013-04-23 15:15:00,69.4,19.7,28.94,SSW,213,5.0,8.0,15,0.00,CLR,,0.00,WeatherDisplay:10.37,2013-04-23 19:15:00,
2013-04-23 15:20:00,69.3,19.6,28.94,SSW,194,7.0,9.0,15,0.00,CLR,,0.00,WeatherDisplay:10.37,2013-04-23 19:20:00,
2013-04-23 15:25:00,68.7,19.1,28.94,SW,216,5.0,11.0,15,0.00,CLR,,0.00,WeatherDisplay:10.37,2013-04-23 19:25:00,
2013-04-23 15:30:00,68.1,18.7,28.94,SSW,213,3.0,11.0,15,0.00,CLR,,0.00,WeatherDisplay:10.37,2013-04-23 19:30:00,
2013-04-23 15:35:00,67.6,18.2,28.94,SSW,200,6.0,8.0,15,0.00,CLR,,0.00,WeatherDisplay:10.37,2013-04-23 19:35:00,
2013-04-23 15:40:00,67.1,17.8,28.94,SSW,206,3.0,8.0,15,0.00,CLR,,0.00,WeatherDisplay:10.37,2013-04-23 19:40:00,
2013-04-23 15:45:00,66.7,17.6,28.94,SW,214,6.0,9.0,15,0.00,CLR,,0.00,WeatherDisplay:10.37,2013-04-23 19:45:00,
2013-04-23 15:50:00,66.4,17.3,28.94,SSW,208,5.0,12.0,15,0.00,CLR,,0.00,WeatherDisplay:10.37,2013-04-23 19:50:00,
2013-04-23 16:00:00,63.2,16.2,28.94,WSW,237,9.0,17.0,16,0.00,CLR,,0.00,WeatherDisplay:10.37,2013-04-23 20:00:00,
2013-04-23 16:05:00,60.7,23.6,28.94,WSW,242,10.0,17.0,24,0.00,CLR,,0.00,WeatherDisplay:10.37,2013-04-23 20:05:00,
2013-04-23 16:10:00,59.6,26.4,28.94,WSW,250,9.0,15.0,28,0.00,CLR,,0.00,WeatherDisplay:10.37,2013-04-23 20:10:00,
2013-04-23 16:15:00,58.8,27.4,28.94,WSW,250,10.0,14.0,30,0.00,CLR,,0.00,WeatherDisplay:10.37,2013-04-23 20:15:00,
2013-04-23 16:20:00,58.5,30.9,28.94,WSW,241,10.0,15.0,35,0.00,CLR,,0.00,WeatherDisplay:10.37,2013-04-23 20:20:00,
2013-04-23 16:25:00,58.8,31.9,28.91,SW,234,7.0,12.0,36,0.00,CLR,,0.00,WeatherDisplay:10.37,2013-04-23 20:25:00,
2013-04-23 16:30:00,59.3,31.6,28.91,SW,232,3.0,8.0,35,0.00,CLR,,0.00,WeatherDisplay:10.37,2013-04-23 20:30:00,
2013-04-23 16:35:00,59.5,31.1,28.91,SW,230,5.0,11.0,34,0.00,CLR,,0.00,WeatherDisplay:10.37,2013-04-23 20:35:00,
2013-04-23 16:40:00,59.5,28.8,28.91,SW,226,3.0,7.0,31,0.00,CLR,,0.00,WeatherDisplay:10.37,2013-04-23 20:40:00,
2013-04-23 16:45:00,59.9,28.4,28.91,SW,229,1.0,4.0,30,0.00,CLR,,0.00,WeatherDisplay:10.37,2013-04-23 20:45:00,
2013-04-23 16:50:00,59.9,27.5,28.91,SW,227,3.0,6.0,29,0.00,CLR,,0.00,WeatherDisplay:10.37,2013-04-23 20:50:00,
2013-04-23 16:55:00,59.7,26.5,28.91,SW,227,2.0,4.0,28,0.00,CLR,,0.00,WeatherDisplay:10.37,2013-04-23 20:55:00,
2013-04-23 17:00:00,59.4,26.2,28.91,SW,235,3.0,7.0,28,0.00,CLR,,0.00,WeatherDisplay:10.37,2013-04-23 21:00:00,
2013-04-23 17:05:00,59.2,26.9,28.91,WSW,240,2.0,4.0,29,0.00,CLR,,0.00,WeatherDisplay:10.37,2013-04-23 21:05:00,
2013-04-23 17:10:00,59.2,26.9,28.91,WSW,241,0.0,4.0,29,0.00,CLR,,0.00,WeatherDisplay:10.37,2013-04-23 21:10:00,
2013-04-23 17:15:00,59.2,26.9,28.91,WSW,240,0.0,6.0,29,0.00,CLR,,0.00,WeatherDisplay:10.37,2013-04-23 21:15:00,
2013-04-23 17:20:00,59.4,27.1,28.91,WSW,241,0.0,2.0,29,0.00,CLR,,0.00,WeatherDisplay:10.37,2013-04-23 21:20:00,
2013-04-23 17:25:00,59.4,27.1,28.91,WSW,240,0.0,3.0,29,0.00,CLR,,0.00,WeatherDisplay:10.37,2013-04-23 21:25:00,
2013-04-23 17:30:00,59.5,27.2,28.91,SSW,206,0.0,4.0,29,0.00,CLR,,0.00,WeatherDisplay:10.37,2013-04-23 21:30:00,
2013-04-23 17:35:00,59.7,27.4,28.91,SSW,200,0.0,3.0,29,0.00,CLR,,0.00,WeatherDisplay:10.37,2013-04-23 21:35:00,
2013-04-23 17:40:00,59.7,27.4,28.88,SW,226,0.0,3.0,29,0.00,CLR,,0.00,WeatherDisplay:10.37,2013-04-23 21:40:00,
2013-04-23 17:50:00,59.9,27.5,28.88,SSW,200,0.0,3.0,29,0.00,CLR,,0.00,WeatherDisplay:10.37,2013-04-23 21:50:00,
2013-04-23 17:55:00,59.9,26.7,28.88,SW,217,0.0,3.0,28,0.00,CLR,,0.00,WeatherDisplay:10.37,2013-04-23 21:55:00,
2013-04-23 18:00:00,60.1,26.8,28.88,SW,216,0.0,0.0,28,0.00,CLR,,0.00,WeatherDisplay:10.37,2013-04-23 22:00:00,
2013-04-23 18:05:00,60.1,26.8,28.88,SW,216,0.0,0.0,28,0.00,CLR,,0.00,WeatherDisplay:10.37,2013-04-23 22:05:00,
2013-04-23 18:10:00,60.1,26.8,28.88,SW,219,0.0,3.0,28,0.00,CLR,,0.00,WeatherDisplay:10.37,2013-04-23 22:10:00,
2013-04-23 18:15:00,59.9,26.7,28.88,SW,222,0.0,2.0,28,0.00,CLR,,0.00,WeatherDisplay:10.37,2013-04-23 22:15:00,
2013-04-23 18:20:00,59.8,26.6,28.88,SW,222,0.0,0.0,28,0.00,CLR,,0.00,WeatherDisplay:10.37,2013-04-23 22:20:00,
2013-04-23 18:25:00,59.7,26.5,28.88,SW,222,0.0,0.0,28,0.00,CLR,,0.00,WeatherDisplay:10.37,2013-04-23 22:25:00,
2013-04-23 18:30:00,59.7,26.5,28.88,SW,222,0.0,0.0,28,0.00,CLR,,0.00,WeatherDisplay:10.37,2013-04-23 22:30:00,
2013-04-23 18:35:00,59.5,26.4,28.88,SW,222,0.0,0.0,28,0.00,CLR,,0.00,WeatherDisplay:10.37,2013-04-23 22:35:00,
2013-04-23 18:40:00,59.4,27.1,28.88,SW,222,0.0,0.0,29,0.00,CLR,,0.00,WeatherDisplay:10.37,2013-04-23 22:40:00,
2013-04-23 18:50:00,59.0,29.2,28.88,SW,222,0.0,0.0,32,0.00,CLR,,0.00,WeatherDisplay:10.37,2013-04-23 22:50:00,
2013-04-23 18:55:00,58.8,30.5,28.88,SW,222,0.0,0.0,34,0.00,CLR,,0.00,WeatherDisplay:10.37,2013-04-23 22:55:00,
2013-04-23 19:00:00,58.8,31.2,28.88,SW,222,0.0,0.0,35,0.00,CLR,,0.00,WeatherDisplay:10.37,2013-04-23 23:00:00,
2013-04-23 19:05:00,58.8,31.2,28.88,SW,222,0.0,0.0,35,0.00,CLR,,0.00,WeatherDisplay:10.37,2013-04-23 23:05:00,
2013-04-23 19:10:00,58.7,31.1,28.85,SW,222,0.0,0.0,35,0.00,CLR,,0.00,WeatherDisplay:10.37,2013-04-23 23:10:00,
2013-04-23 19:15:00,58.5,30.9,28.85,SW,222,0.0,0.0,35,0.00,CLR,,0.00,WeatherDisplay:10.37,2013-04-23 23:15:00,
2013-04-23 19:20:00,58.5,30.9,28.85,SW,222,0.0,0.0,35,0.00,CLR,,0.00,WeatherDisplay:10.37,2013-04-23 23:20:00,
2013-04-23 19:25:00,58.5,30.9,28.85,SW,222,0.0,0.0,35,0.00,CLR,,0.00,WeatherDisplay:10.37,2013-04-23 23:25:00,
2013-04-23 19:30:00,58.5,31.6,28.85,West,264,2.0,6.0,36,0.00,CLR,,0.00,WeatherDisplay:10.37,2013-04-23 23:30:00,
2013-04-23 19:35:00,58.5,31.6,28.85,WNW,290,2.0,3.0,36,0.00,CLR,,0.00,WeatherDisplay:10.37,2013-04-23 23:35:00,
2013-04-23 19:40:00,58.5,31.6,28.85,SE,131,0.0,4.0,36,0.00,CLR,,0.00,WeatherDisplay:10.37,2013-04-23 23:40:00,
2013-04-23 19:45:00,58.5,31.6,28.85,SE,133,0.0,4.0,36,0.00,CLR,,0.00,WeatherDisplay:10.37,2013-04-23 23:45:00,
2013-04-23 19:50:00,58.3,31.4,28.85,SE,141,0.0,3.0,36,0.00,CLR,,0.00,WeatherDisplay:10.37,2013-04-23 23:50:00,
2013-04-23 19:55:00,58.3,31.4,28.84,SE,134,0.0,6.0,36,0.00,CLR,,0.00,WeatherDisplay:10.37,2013-04-23 23:55:00,
2013-04-23 20:00:00,58.3,31.4,28.82,SE,140,0.0,4.0,36,0.00,CLR,,0.00,WeatherDisplay:10.37,2013-04-24 00:00:00,
2013-04-23 20:05:00,58.3,31.4,28.82,SSE,153,2.0,4.0,36,0.00,CLR,,0.00,WeatherDisplay:10.37,2013-04-24 00:05:00,
2013-04-23 20:10:00,58.3,31.4,28.82,SSE,155,0.0,0.0,36,0.00,CLR,,0.00,WeatherDisplay:10.37,2013-04-24 00:10:00,
2013-04-23 20:15:00,58.1,30.6,28.82,SSE,152,0.0,3.0,35,0.00,CLR,,0.00,WeatherDisplay:10.37,2013-04-24 00:15:00,
2013-04-23 20:20:00,58.1,30.6,28.82,SE,140,0.0,3.0,35,0.00,CLR,,0.00,WeatherDisplay:10.37,2013-04-24 00:20:00,
2013-04-23 20:25:00,58.1,30.6,28.82,SE,130,0.0,0.0,35,0.00,CLR,,0.00,WeatherDisplay:10.37,2013-04-24 00:25:00,
2013-04-23 20:30:00,57.9,30.4,28.82,SE,130,0.0,0.0,35,0.00,CLR,,0.00,WeatherDisplay:10.37,2013-04-24 00:30:00,
2013-04-23 20:35:00,57.9,30.4,28.82,SE,130,0.0,0.0,35,0.00,CLR,,0.00,WeatherDisplay:10.37,2013-04-24 00:35:00,
2013-04-23 20:40:00,57.7,30.2,28.82,SE,130,0.0,0.0,35,0.00,CLR,,0.00,WeatherDisplay:10.37,2013-04-24 00:40:00,
2013-04-23 20:45:00,57.7,30.9,28.82,SE,130,0.0,3.0,36,0.00,CLR,,0.00,WeatherDisplay:10.37,2013-04-24 00:45:00,
2013-04-23 20:50:00,57.7,30.9,28.82,SE,129,0.0,3.0,36,0.00,CLR,,0.00,WeatherDisplay:10.37,2013-04-24 00:50:00,
2013-04-23 20:55:00,57.7,31.6,28.82,ESE,109,0.0,4.0,37,0.00,CLR,,0.00,WeatherDisplay:10.37,2013-04-24 00:55:00,
2013-04-23 21:00:00,57.6,31.5,28.82,East,90,0.0,3.0,37,0.00,CLR,,0.00,WeatherDisplay:10.37,2013-04-24 01:00:00,
2013-04-23 21:05:00,57.6,31.5,28.82,East,87,0.0,0.0,37,0.00,CLR,,0.00,WeatherDisplay:10.37,2013-04-24 01:05:00,
2013-04-23 21:10:00,57.6,31.5,28.82,East,89,0.0,0.0,37,0.00,CLR,,0.00,WeatherDisplay:10.37,2013-04-24 01:10:00,
2013-04-23 21:15:00,57.6,31.5,28.82,East,90,0.0,3.0,37,0.00,CLR,,0.00,WeatherDisplay:10.37,2013-04-24 01:15:00,
2013-04-23 21:20:00,57.6,31.5,28.82,East,90,0.0,0.0,37,0.00,CLR,,0.00,WeatherDisplay:10.37,2013-04-24 01:20:00,
2013-04-23 21:25:00,57.6,31.5,28.82,East,90,0.0,0.0,37,0.00,CLR,,0.00,WeatherDisplay:10.37,2013-04-24 01:25:00,
2013-04-23 21:30:00,57.6,32.1,28.82,East,90,0.0,0.0,38,0.00,CLR,,0.00,WeatherDisplay:10.37,2013-04-24 01:30:00,
2013-04-23 21:35:00,57.6,32.1,28.82,East,90,0.0,3.0,38,0.00,CLR,,0.00,WeatherDisplay:10.37,2013-04-24 01:35:00,
2013-04-23 21:40:00,57.6,32.1,28.82,ESE,108,0.0,4.0,38,0.00,CLR,,0.00,WeatherDisplay:10.37,2013-04-24 01:40:00,
2013-04-23 21:45:00,57.6,32.1,28.82,SE,126,0.0,3.0,38,0.00,CLR,,0.00,WeatherDisplay:10.37,2013-04-24 01:45:00,
2013-04-23 21:50:00,57.6,32.1,28.82,ESE,116,0.0,0.0,38,0.00,CLR,,0.00,WeatherDisplay:10.37,2013-04-24 01:50:00,
2013-04-23 21:55:00,57.6,32.1,28.82,ESE,107,0.0,3.0,38,0.00,CLR,,0.00,WeatherDisplay:10.37,2013-04-24 01:55:00,
2013-04-23 22:00:00,57.6,32.1,28.82,ESE,107,0.0,0.0,38,0.00,CLR,,0.00,WeatherDisplay:10.37,2013-04-24 02:00:00,
2013-04-23 22:05:00,57.6,32.1,28.82,ESE,107,0.0,0.0,38,0.00,CLR,,0.00,WeatherDisplay:10.37,2013-04-24 02:05:00,
2013-04-23 22:10:00,57.6,32.1,28.79,ESE,107,0.0,4.0,38,0.00,CLR,,0.00,WeatherDisplay:10.37,2013-04-24 02:10:00,
2013-04-23 22:15:00,57.6,32.1,28.79,ESE,123,0.0,4.0,38,0.00,CLR,,0.00,WeatherDisplay:10.37,2013-04-24 02:15:00,
2013-04-23 22:20:00,57.6,32.1,28.79,SSE,149,0.0,4.0,38,0.00,CLR,,0.00,WeatherDisplay:10.37,2013-04-24 02:20:00,
2013-04-23 22:25:00,57.6,32.1,28.79,SSE,151,0.0,3.0,38,0.00,CLR,,0.00,WeatherDisplay:10.37,2013-04-24 02:25:00,
2013-04-23 22:30:00,57.6,32.1,28.79,SE,132,0.0,0.0,38,0.00,CLR,,0.00,WeatherDisplay:10.37,2013-04-24 02:30:00,
2013-04-23 22:35:00,57.6,32.1,28.79,SE,127,0.0,0.0,38,0.00,CLR,,0.00,WeatherDisplay:10.37,2013-04-24 02:35:00,
2013-04-23 22:40:00,57.6,32.1,28.79,SE,131,0.0,0.0,38,0.00,CLR,,0.00,WeatherDisplay:10.37,2013-04-24 02:40:00,
2013-04-23 22:45:00,57.4,32.0,28.79,SE,131,0.0,0.0,38,0.00,CLR,,0.00,WeatherDisplay:10.37,2013-04-24 02:45:00,
2013-04-23 22:50:00,57.4,32.0,28.79,SE,136,0.0,0.0,38,0.00,CLR,,0.00,WeatherDisplay:10.37,2013-04-24 02:50:00,
2013-04-23 22:55:00,57.4,32.0,28.76,SSE,148,0.0,0.0,38,0.00,CLR,,0.00,WeatherDisplay:10.37,2013-04-24 02:55:00,
2013-04-23 23:05:00,57.6,31.5,28.76,SSE,158,3.0,6.0,37,0.00,CLR,,0.00,WeatherDisplay:10.37,2013-04-24 03:05:00,
2013-04-23 23:10:00,57.6,31.5,28.79,SSE,165,2.0,6.0,37,0.00,CLR,,0.00,WeatherDisplay:10.37,2013-04-24 03:10:00,
2013-04-23 23:20:00,57.7,30.9,28.79,SSW,196,0.0,5.0,36,0.00,CLR,,0.00,WeatherDisplay:10.37,2013-04-24 03:20:00,
2013-04-23 23:25:00,57.6,30.8,28.79,SSW,202,0.0,4.0,36,0.00,CLR,,0.00,WeatherDisplay:10.37,2013-04-24 03:25:00,
2013-04-23 23:30:00,57.6,30.8,28.79,South,190,0.0,6.0,36,0.00,CLR,,0.00,WeatherDisplay:10.37,2013-04-24 03:30:00,
2013-04-23 23:40:00,57.7,30.9,28.76,South,187,2.0,4.0,36,0.00,CLR,,0.00,WeatherDisplay:10.37,2013-04-24 03:40:00,
2013-04-23 23:50:00,57.6,30.1,28.76,SW,236,5.0,6.0,35,0.00,CLR,,0.00,WeatherDisplay:10.37,2013-04-24 03:50:00,